Location: Newark
(47.5833°N, 8.1500°E)
Time: 08:37:12
(UTC+00:00)

Altair - Pass Details

Date: 31 October 2020
Orbit: 1502 x 1682 km, 47.2° (Epoch: 03 December)

Event Time Altitude Azimuth Distance (km) Brightness Sun altitude
Exits shadow 02:43:14 25° 171° (S) 2,677 8.6 -35.1°
Maximum altitude 02:46:40 32° 136° (SE) 2,387 8.6 -34.5°
Drops below altitude 10° 02:54:36 10° 78° (ENE) 3,747 10.4 -33.2°
Sets 02:58:07 0° 69° (ENE) 4,760 11.2 -32.7°
